This is the latest recevied weather packets stored in our database for station/object KF6FPU-15. If no packets are shown the sender has not sent any weather packets the latest 10 day(s).
| Time | Temp. | Humidity | Pressure | Rain* | Wind** | Luminosity | Snow |
|---|---|---|---|---|---|---|---|
| 1788457979 | 30.56° C | 20% | 1014.1 hPa | - | - | - | - |
| 1788457379 | 30.56° C | 20% | 1014.1 hPa | - | - | - | - |
| 1788456179 | 30° C | 20% | 1014.2 hPa | - | - | - | - |
| 1788455579 | 30° C | 20% | 1014.3 hPa | - | - | - | - |
| 1788454979 | 30° C | 20% | 1014.4 hPa | - | - | - | - |
| 1788454379 | 30° C | 20% | 1014.4 hPa | - | - | - | - |
| 1788453779 | 30° C | 20% | 1014.4 hPa | - | - | - | - |
| 1788453179 | 30° C | 20% | 1014.4 hPa | - | - | - | - |
| 1788452579 | 30° C | 20% | 1014.6 hPa | - | - | - | - |
| 1788451979 | 29.44° C | 20% | 1014.6 hPa | - | - | - | - |
| 1788451379 | 29.44° C | 20% | 1014.7 hPa | - | - | - | - |
| 1788450779 | 29.44° C | 20% | 1014.7 hPa | - | - | - | - |
| 1788449579 | 28.89° C | 20% | 1014.9 hPa | - | - | - | - |
| 1788448979 | 28.89° C | 20% | 1014.9 hPa | - | - | - | - |
| 1788448379 | 28.33° C | 20% | 1014.9 hPa | - | - | - | - |
| 1788447779 | 28.33° C | 20% | 1014.7 hPa | - | - | - | - |
| 1788447179 | 28.33° C | 20% | 1014.6 hPa | - | - | - | - |
| 1788446579 | 28.33° C | 20% | 1014.7 hPa | - | - | - | - |
| 1788445979 | 28.89° C | 20% | 1014.7 hPa | - | - | - | - |
| 1788445379 | 28.89° C | 20% | 1014.7 hPa | - | - | - | - |
| 1788444779 | 28.89° C | 20% | 1014.7 hPa | - | - | - | - |
| 1788444179 | 29.44° C | 20% | 1014.6 hPa | - | - | - | - |
| 1788442979 | 29.44° C | 20% | 1014.5 hPa | - | - | - | - |
| 1788442379 | 29.44° C | 20% | 1014.5 hPa | - | - | - | - |
| 1788441779 | 29.44° C | 20% | 1014.5 hPa | - | - | - | - |
* Rain since midnight (hover to see other rain measurements)
** Current wind speed in m/s (hover to see current wind gust speed)